Location: Arezzo
(43.4170°N, 11.8830°E)
Time: 00:48:43
(UTC+01:00)

STARLINK-2711 - Pass Details

Date: 30 October 2021
Orbit: 545 x 549 km, 53.1° (Epoch: 30 November)

Event Time Altitude Azimuth Distance (km) Brightness Sun altitude
Exits shadow 04:23:00 11° 75° (ENE) 1,732 6.9 -37.0°
Drops below altitude 10° 04:23:15 10° 73° (ENE) 1,817 7.0 -36.9°
Sets 04:25:42 0° 62° (ENE) 2,715 8.1 -36.5°
